FW7372 Weather Reports


time (UTC)temp
F
wind
direction
speed
knots
gust
knots
rain 1hr
in
rain 24hr
in
rain mn
in
humidity
%
barometer
mb
20260507082116 78 222 5.2 10.4 0.00 0.00 0.00 87 1026.9
20260507081616 78 197 5.2 10.4 0.00 0.00 0.00 86 1026.5
20260507081115 78 236 4.3 10.4 0.00 0.00 0.00 86 1026.5
20260507080615 78 191 4.3 10.4 0.00 0.00 0.00 86 1026.8
20260507080115 78 180 3.5 10.4 0.00 0.00 0.00 86 1026.8
20260507075615 78 184 4.3 10.4 0.00 0.00 0.00 86 1026.8
20260507075115 78 160 3.5 10.4 0.00 0.00 0.00 86 1026.8
20260507074615 78 241 6.1 11.3 0.00 0.00 0.00 86 1026.9
20260507073600 78 178 4.3 11.3 0.00 0.00 0.00 86 1026.8
20260507073100 78 208 3.5 11.3 0.00 0.00 0.00 86 1026.7
20260507072559 78 247 5.2 11.3 0.00 0.00 0.00 86 1026.7
20260507072059 78 193 4.3 11.3 0.00 0.00 0.00 86 1026.8
20260507071559 78 208 4.3 11.3 0.00 0.00 0.00 86 1026.8
20260507071059 78 206 4.3 11.3 0.00 0.00 0.00 85 1026.6
20260507070559 78 269 4.3 11.3 0.00 0.00 0.00 85 1026.9
20260507070059 78 178 2.6 11.3 0.00 0.00 0.00 85 1027.0
20260507065558 78 192 3.5 11.3 0.00 0.00 0.00 85 1026.8
20260507064542 78 213 4.3 11.3 0.00 0.00 0.00 85 1027.2
20260507064042 78 227 5.2 11.3 0.00 0.00 0.00 85 1027.1
20260507063542 78 199 4.3 11.3 0.00 0.00 0.00 85 1026.8
20260507063041 78 205 4.3 11.3 0.00 0.00 0.00 86 1027.3
20260507062540 78 192 4.3 11.3 0.00 0.00 0.00 86 1027.2
20260507062040 78 143 4.3 11.3 0.00 0.00 0.00 86 1027.1
20260507061540 78 188 4.3 11.3 0.00 0.00 0.00 86 1027.3
20260507061040 78 117 4.3 11.3 0.00 0.00 0.00 86 1027.4
20260507060540 78 129 5.2 11.3 0.00 0.00 0.00 85 1027.6
20260507060040 78 142 2.6 11.3 0.00 0.00 0.00 85 1027.6
20260507055540 78 125 2.6 11.3 0.00 0.00 0.00 85 1027.6
20260507055040 78 206 4.3 11.3 0.00 0.00 0.00 85 1027.9
20260507054540 78 183 4.3 11.3 0.00 0.00 0.00 85 1027.8
20260507053010 78 147 3.5 11.3 0.00 0.00 0.00 86 1027.7
20260507052510 78 191 4.3 11.3 0.00 0.00 0.00 86 1027.7
20260507051454 78 163 4.3 11.3 0.00 0.00 0.00 87 1027.9
20260507050954 78 156 2.6 11.3 0.00 0.00 0.00 87 1027.8
20260507050454 78 145 4.3 11.3 0.00 0.00 0.00 86 1027.9
20260507045954 79 163 3.5 11.3 0.00 0.00 0.00 86 1028.1
20260507045454 79 155 5.2 11.3 0.00 0.00 0.00 85 1028.2
20260507044954 79 197 7.8 11.3 0.00 0.00 0.00 85 1028.3
20260507043938 79 156 5.2 10.4 0.00 0.00 0.00 85 1028.2
20260507043438 79 157 5.2 10.4 0.00 0.00 0.00 85 1028.6
20260507042422 79 206 7.0 10.4 0.00 0.00 0.00 85 1028.7
20260507040852 79 148 3.5 10.4 0.00 0.00 0.00 85 1028.7
20260507040352 79 187 7.0 10.4 0.00 0.00 0.00 84 1028.9
20260507035852 79 167 5.2 11.3 0.00 0.00 0.00 84 1028.7
20260507035352 79 184 5.2 11.3 0.00 0.00 0.00 84 1028.9
20260507034852 79 198 6.1 11.3 0.00 0.00 0.00 84 1028.9
20260507034352 79 179 6.1 11.3 0.00 0.00 0.00 85 1028.8
20260507033337 79 179 7.0 11.3 0.00 0.00 0.00 84 1028.7
20260507032837 79 169 5.2 11.3 0.00 0.00 0.00 84 1028.9
20260507032337 79 174 6.1 12.2 0.00 0.00 0.00 84 1028.9
20260507031321 79 164 7.0 12.2 0.00 0.00 0.00 84 1029.0
20260507030821 79 154 5.2 11.3 0.00 0.00 0.00 84 1029.2
20260507030321 79 208 7.0 11.3 0.00 0.00 0.00 84 1029.0
20260507025821 79 141 5.2 11.3 0.00 0.00 0.00 84 1029.1
20260507024806 79 176 5.2 11.3 0.00 0.00 0.00 84 1029.3
20260507024306 79 174 6.1 11.3 0.00 0.00 0.00 84 1029.2
20260507023806 79 168 5.2 11.3 0.00 0.00 0.00 84 1029.4
20260507023306 79 195 7.0 10.4 0.00 0.00 0.00 84 1029.3
20260507022806 79 159 6.1 10.4 0.00 0.00 0.00 85 1029.0
20260507022306 79 164 5.2 10.4 0.00 0.00 0.00 85 1029.2
20260507021806 79 182 7.0 10.4 0.00 0.00 0.00 85 1029.1
20260507021306 79 149 5.2 13.0 0.00 0.00 0.00 85 1029.4
20260507020251 79 177 7.0 11.3 0.00 0.00 0.00 85 1029.3
20260507014720 79 111 5.2 11.3 0.00 0.00 0.00 86 1029.0
20260507013705 79 135 5.2 11.3 0.00 0.00 0.00 86 1029.2
20260507013205 79 55 5.2 12.2 0.00 0.00 0.00 86 1028.8
20260507012704 79 100 5.2 12.2 0.00 0.00 0.00 86 1028.9
20260507012205 79 140 5.2 12.2 0.00 0.00 0.00 86 1028.8
20260507010649 79 139 5.2 10.4 0.00 0.00 0.00 85 1028.7
20260507010149 79 120 4.3 10.4 0.00 0.00 0.00 86 1028.7
20260507005649 79 145 4.3 10.4 0.00 0.00 0.00 86 1028.9
20260507005148 79 157 6.1 10.4 0.00 0.00 0.00 86 1028.8
20260507004648 79 186 7.0 10.4 0.00 0.00 0.00 86 1028.6
20260507003632 79 186 6.1 10.4 0.00 0.00 0.00 86 1028.5
20260507003132 79 141 5.2 10.4 0.00 0.00 0.00 86 1028.3
20260507002633 79 141 6.1 10.4 0.00 0.00 0.00 86 1028.4
20260507002133 79 164 2.6 10.4 0.00 0.00 0.00 85 1028.1
20260507001632 79 130 4.3 10.4 0.00 0.00 0.00 85 1028.3
20260507001133 79 176 4.3 10.4 0.00 0.00 0.00 85 1028.3
20260507000632 79 175 5.2 10.4 0.00 0.00 0.00 85 1028.3
20260507000132 79 142 3.5 10.4 0.00 0.00 0.00 85 1028.3
20260506235632 79 196 6.1 10.4 0.00 0.00 0.00 85 1028.1
20260506235133 79 144 5.2 10.4 0.00 0.00 0.00 85 1028.0
20260506234633 79 154 4.3 10.4 0.00 0.00 0.00 85 1027.9
20260506234132 79 167 4.3 11.3 0.00 0.00 0.00 85 1028.0
20260506233632 79 187 6.1 11.3 0.00 0.00 0.00 85 1027.8
20260506233133 79 125 4.3 9.6 0.00 0.00 0.00 85 1027.8
20260506232633 79 116 2.6 9.6 0.00 0.00 0.00 85 1027.8
20260506232132 79 178 3.5 9.6 0.00 0.00 0.00 84 1027.8
20260506231632 79 173 3.5 9.6 0.00 0.00 0.00 84 1027.6
20260506231132 79 166 5.2 9.6 0.00 0.00 0.00 84 1027.4
20260506230632 79 153 4.3 9.6 0.00 0.00 0.00 84 1027.4
20260506225617 79 145 5.2 9.6 0.00 0.00 0.00 84 1027.3
20260506225116 79 117 3.5 11.3 0.00 0.00 0.00 84 1027.4
20260506224617 80 165 3.5 11.3 0.00 0.00 0.00 83 1027.3
20260506224116 80 147 3.5 11.3 0.00 0.00 0.00 83 1027.1
20260506223616 80 124 4.3 11.3 0.00 0.00 0.00 82 1027.1
20260506223117 80 166 5.2 11.3 0.00 0.00 0.00 82 1027.2
20260506222102 80 126 4.3 11.3 0.00 0.00 0.00 82 1027.0
20260506221602 80 110 5.2 11.3 0.00 0.00 0.00 81 1027.1
20260506221102 80 134 4.3 11.3 0.00 0.00 0.00 81 1027.0
20260506220602 80 122 4.3 11.3 0.00 0.00 0.00 81 1027.1
20260506215602 80 137 6.1 11.3 0.00 0.00 0.00 81 1026.8
20260506215102 80 151 4.3 11.3 0.00 0.00 0.00 81 1026.9
20260506214601 80 163 7.0 11.3 0.00 0.00 0.00 81 1026.9
20260506214101 80 114 6.1 11.3 0.00 0.00 0.00 81 1026.6
20260506213601 80 161 7.0 11.3 0.00 0.00 0.00 80 1026.6
20260506213059 81 122 5.2 12.2 0.00 0.00 0.00 80 1026.5
20260506212559 81 135 6.1 12.2 0.00 0.00 0.00 80 1026.4
20260506212058 81 148 5.2 12.2 0.00 0.00 0.00 80 1026.4
20260506211043 81 157 7.0 12.2 0.00 0.00 0.00 81 1026.5
20260506210028 81 136 7.0 12.2 0.00 0.00 0.00 81 1026.3
20260506205528 81 156 7.8 12.2 0.00 0.00 0.00 81 1026.5
20260506203958 81 130 5.2 12.2 0.00 0.00 0.00 82 1026.6
20260506203458 81 166 7.0 12.2 0.00 0.00 0.00 82 1026.6
20260506202957 81 90 6.1 12.2 0.00 0.00 0.00 82 1026.4
20260506202457 81 118 6.1 12.2 0.00 0.00 0.00 82 1026.2
20260506201956 81 167 7.0 12.2 0.00 0.00 0.00 82 1026.4
20260506201455 81 174 7.0 11.3 0.00 0.00 0.00 82 1026.2
20260506200955 81 163 5.2 11.3 0.00 0.00 0.00 81 1026.5
20260506200455 81 167 6.1 13.0 0.00 0.00 0.00 80 1026.4
20260506195954 82 132 6.1 13.0 0.00 0.00 0.00 80 1026.6
20260506195454 81 137 6.1 13.0 0.00 0.00 0.00 80 1026.7
20260506194954 82 141 7.0 13.0 0.00 0.00 0.00 80 1026.7
20260506194454 82 148 6.1 13.0 0.00 0.00 0.00 80 1026.7
20260506193438 82 124 6.1 11.3 0.00 0.00 0.00 81 1026.9
20260506192423 82 137 6.1 13.0 0.00 0.00 0.00 80 1027.1
20260506191923 82 112 5.2 13.0 0.00 0.00 0.00 81 1026.9
20260506191423 82 90 7.8 13.0 0.00 0.00 0.00 80 1026.8
20260506190923 82 82 7.0 12.2 0.00 0.00 0.00 80 1026.8
20260506190422 81 125 7.0 12.2 0.00 0.00 0.00 81 1026.7
20260506185922 81 127 5.2 13.0 0.00 0.00 0.00 81 1027.0
20260506185422 81 150 7.0 13.0 0.00 0.00 0.00 81 1027.0
20260506184922 81 141 6.1 13.0 0.00 0.00 0.00 82 1027.1
20260506184422 82 96 6.1 12.2 0.00 0.00 0.00 82 1027.2
20260506183922 82 150 7.0 14.8 0.00 0.00 0.00 81 1027.5
20260506183422 82 72 7.8 14.8 0.00 0.00 0.00 80 1027.4
20260506182922 82 101 7.8 14.8 0.00 0.00 0.00 80 1027.8
20260506182422 82 111 7.0 12.2 0.00 0.00 0.00 80 1027.3
20260506181922 81 117 7.0 13.0 0.00 0.00 0.00 81 1027.3
20260506181422 81 107 7.8 13.0 0.00 0.00 0.00 81 1027.6
20260506180922 81 102 7.8 13.0 0.00 0.00 0.00 81 1027.7
20260506180422 82 98 7.8 13.0 0.00 0.00 0.00 81 1027.4
20260506175922 82 67 7.0 14.8 0.00 0.00 0.00 81 1027.8
20260506175421 81 88 6.1 14.8 0.00 0.00 0.00 81 1027.8
20260506174921 82 112 7.8 14.8 0.00 0.00 0.00 80 1027.7
20260506174421 82 89 7.8 13.0 0.00 0.00 0.00 81 1027.8
20260506173921 82 118 7.0 13.9 0.00 0.00 0.00 81 1028.3
20260506173421 82 167 8.7 13.9 0.00 0.00 0.00 80 1028.1
20260506172921 82 98 8.7 14.8 0.00 0.00 0.00 79 1027.9
20260506172421 83 130 8.7 14.8 0.00 0.00 0.00 78 1028.2
20260506171921 83 141 7.8 13.0 0.00 0.00 0.00 78 1028.2
20260506171421 84 112 7.8 13.0 0.00 0.00 0.00 78 1028.1
20260506170921 83 129 8.7 13.0 0.00 0.00 0.00 78 1028.2
20260506170421 83 105 7.8 13.0 0.00 0.00 0.00 78 1028.6
20260506165921 83 86 6.1 13.9 0.00 0.00 0.00 80 1028.4
20260506165421 83 99 8.7 13.9 0.00 0.00 0.00 79 1028.4
20260506164921 83 130 7.8 13.0 0.00 0.00 0.00 79 1028.5
20260506164420 83 163 7.0 13.0 0.00 0.00 0.00 78 1028.7
20260506163405 83 131 7.8 13.0 0.00 0.00 0.00 80 1028.7
20260506162904 83 150 7.0 13.9 0.00 0.00 0.00 79 1028.6
20260506162403 82 189 8.7 13.9 0.00 0.00 0.00 79 1028.8
20260506161902 83 124 7.8 13.9 0.00 0.00 0.00 79 1028.8
20260506161401 83 163 7.8 12.2 0.00 0.00 0.00 78 1028.8
20260506160346 83 144 7.8 17.4 0.00 0.00 0.00 78 1028.8
20260506155331 83 141 7.0 13.9 0.00 0.00 0.00 80 1028.9
20260506154831 82 138 7.8 13.9 0.00 0.00 0.00 81 1029.2
20260506154330 82 152 7.8 13.9 0.00 0.00 0.00 82 1029.3
20260506153829 81 182 8.7 13.9 0.00 0.00 0.00 82 1029.3
20260506153329 81 131 8.7 13.9 0.00 0.00 0.00 82 1029.2
20260506152828 81 135 7.8 13.9 0.00 0.00 0.00 82 1029.4
20260506151813 81 171 7.0 13.0 0.00 0.00 0.00 82 1029.2
20260506151313 81 163 8.7 13.9 0.00 0.00 0.00 81 1029.3
20260506150813 82 148 7.8 13.9 0.00 0.00 0.00 80 1029.5
20260506150313 82 135 7.8 13.9 0.00 0.00 0.00 80 1029.5
20260506145813 82 105 7.8 14.8 0.00 0.00 0.00 79 1029.3
20260506145313 83 130 7.0 14.8 0.00 0.00 0.00 79 1029.5
20260506144813 83 93 7.8 13.9 0.00 0.00 0.00 78 1029.4
20260506144313 83 123 7.0 13.0 0.00 0.00 0.00 80 1029.3
20260506143813 83 154 7.0 13.9 0.00 0.00 0.00 80 1029.2
20260506142758 83 125 7.0 12.2 0.00 0.00 0.00 78 1029.4
20260506142258 83 178 7.0 12.2 0.00 0.00 0.00 79 1029.2
20260506141757 82 172 6.1 12.2 0.00 0.00 0.00 79 1029.3
20260506141256 83 153 6.1 12.2 0.00 0.00 0.00 79 1029.2
20260506140756 83 127 7.0 13.0 0.00 0.00 0.00 79 1029.2
20260506140256 83 213 7.8 13.0 0.00 0.00 0.00 78 1029.4
20260506135756 84 181 7.8 13.9 0.00 0.00 0.00 76 1029.1
20260506135256 84 163 9.6 13.9 0.00 0.00 0.00 76 1029.2
20260506134756 83 163 7.0 12.2 0.00 0.00 0.00 77 1029.1
20260506134255 84 161 7.8 13.9 0.00 0.00 0.00 75 1029.3
20260506133755 84 173 7.0 13.9 0.00 0.00 0.00 76 1029.5
20260506133255 84 185 7.0 13.0 0.00 0.00 0.00 76 1029.3
20260506132755 84 169 7.8 14.8 0.00 0.00 0.00 77 1029.4
20260506131740 83 186 7.8 14.8 0.00 0.00 0.00 77 1029.4
20260506130725 83 215 9.6 13.9 0.00 0.00 0.00 77 1029.2
20260506125709 83 192 8.7 14.8 0.00 0.00 0.00 77 1029.1
20260506125208 83 176 7.8 14.8 0.00 0.00 0.00 77 1029.0
20260506124708 82 176 8.7 13.9 0.00 0.00 0.00 79 1029.2
20260506123653 82 194 7.8 13.0 0.00 0.00 0.00 79 1029.2
20260506123153 82 181 7.8 13.0 0.00 0.00 0.00 79 1029.2
20260506122137 83 161 8.7 13.0 0.00 0.00 0.00 79 1029.2
20260506121636 82 142 7.8 13.9 0.00 0.00 0.00 79 1028.9
20260506120621 82 154 7.0 13.9 0.00 0.00 0.00 80 1028.9
20260506120121 82 166 7.0 13.9 0.00 0.00 0.00 79 1029.0
20260506115621 82 163 8.7 13.0 0.00 0.00 0.00 79 1028.9
20260506115120 82 143 7.0 14.8 0.00 0.00 0.00 79 1028.8
20260506114620 82 143 6.1 14.8 0.00 0.00 0.00 79 1028.8
20260506114120 82 134 6.1 14.8 0.00 0.00 0.00 80 1028.7
20260506113619 82 159 7.8 13.0 0.00 0.00 0.00 80 1028.7
20260506113118 82 151 9.6 12.2 0.00 0.00 0.00 80 1028.5
20260506112618 81 178 7.8 12.2 0.00 0.00 0.00 80 1028.6
20260506112117 81 167 7.8 13.0 0.00 0.00 0.00 80 1028.5
20260506111102 81 165 7.0 13.9 0.00 0.00 0.00 80 1028.4
20260506110602 81 130 5.2 13.9 0.00 0.00 0.00 81 1028.3
20260506105547 80 118 4.3 13.9 0.00 0.00 0.00 82 1028.2
20260506104533 80 165 6.1 13.9 0.00 0.00 0.00 82 1028.3
20260506104032 80 103 5.2 13.9 0.00 0.00 0.00 83 1028.2
20260506101946 79 156 6.1 12.2 0.00 0.00 0.00 84 1028.2
20260506101445 79 150 6.1 12.2 0.00 0.00 0.00 84 1028.1
20260506100944 79 195 7.0 12.2 0.00 0.00 0.00 84 1028.1
20260506100444 79 139 6.1 12.2 0.00 0.00 0.00 84 1028.0
20260506095944 78 202 7.0 13.0 0.00 0.00 0.00 84 1028.0
20260506094929 78 189 7.0 12.2 0.00 0.00 0.00 84 1028.1
20260506093359 78 146 6.1 13.0 0.00 0.00 0.00 84 1027.9
20260506092859 78 167 7.8 13.0 0.00 0.00 0.00 84 1027.8
20260506092359 78 161 6.1 12.2 0.00 0.00 0.00 85 1027.9
20260506091859 78 139 6.1 13.9 0.00 0.00 0.00 85 1027.8
20260506091359 78 170 7.8 13.9 0.00 0.00 0.00 85 1028.1
20260506090858 78 175 7.8 13.0 0.00 0.00 0.00 85 1027.7
20260506090358 78 148 5.2 13.0 0.00 0.00 0.00 85 1028.0
20260506085858 78 134 7.0 13.0 0.00 0.00 0.00 85 1027.7
20260506085359 78 157 6.1 12.2 0.00 0.00 0.00 85 1027.5
20260506084858 78 139 5.2 12.2 0.00 0.00 0.00 85 1027.6
20260506084358 78 162 7.8 12.2 0.00 0.00 0.00 85 1027.6
20260506083857 78 159 7.8 12.2 0.00 0.00 0.00 85 1027.6
20260506083357 78 141 6.1 11.3 0.00 0.00 0.00 85 1027.7
20260506082858 78 168 6.1 13.0 0.00 0.00 0.00 85 1027.8
20260506082357 78 182 7.8 13.0 0.00 0.00 0.00 85 1027.9